This is the latest recevied weather packets stored in our database for station/object KI5MKI. If no packets are shown the sender has not sent any weather packets the latest 10 day(s).
| Time | Temp. | Humidity | Pressure | Rain* | Wind** | Luminosity | Snow |
|---|---|---|---|---|---|---|---|
| 1777601313 | 15.56° C | 79% | 1015.6 hPa | 0 mm | - | 0 W/m² | - |
| 1777601010 | 15.56° C | 78% | 1015.7 hPa | 0 mm | - | 0 W/m² | - |
| 1777600707 | 15.56° C | 78% | 1015.5 hPa | 0 mm | - | 0 W/m² | - |
| 1777600402 | 15.56° C | 78% | 1015.6 hPa | 0 mm | - | 0 W/m² | - |
| 1777600099 | 15.56° C | 77% | 1015.7 hPa | 0 mm | - | 0 W/m² | - |
| 1777599794 | 15.56° C | 78% | 1015.5 hPa | 0 mm | - | 0 W/m² | - |
| 1777599489 | 15.56° C | 77% | 1015.7 hPa | 0 mm | - | 0 W/m² | - |
| 1777599187 | 15.56° C | 77% | 1015.7 hPa | 0 mm | - | 0 W/m² | - |
| 1777598883 | 15.56° C | 77% | 1015.1 hPa | 0 mm | - | 0 W/m² | - |
| 1777598580 | 15.56° C | 77% | 1015.1 hPa | 0 mm | - | 0 W/m² | - |
| 1777598276 | 15.56° C | 78% | 1015.1 hPa | 0 mm | - | 0 W/m² | - |
| 1777597975 | 15.56° C | 77% | 1015.5 hPa | 0 mm | - | 0 W/m² | - |
| 1777597673 | 15.56° C | 77% | 1015.2 hPa | 0 mm | - | 1 W/m² | - |
| 1777597369 | 16.11° C | 77% | 1015.1 hPa | 0 mm | - | 1 W/m² | - |
| 1777597065 | 16.11° C | 77% | 1015 hPa | 0 mm | - | 1 W/m² | - |
| 1777596762 | 16.11° C | 78% | 1015 hPa | 0 mm | - | 3 W/m² | - |
| 1777596457 | 16.11° C | 78% | 1014.8 hPa | 0 mm | - | 5 W/m² | - |
| 1777596155 | 16.11° C | 78% | 1014.5 hPa | 0 mm | - | 6 W/m² | - |
| 1777595852 | 16.11° C | 78% | 1014.5 hPa | 0 mm | - | 5 W/m² | - |
| 1777595546 | 16.11° C | 78% | 1014.2 hPa | 0 mm | - | 6 W/m² | - |
| 1777595243 | 16.11° C | 78% | 1014.1 hPa | 0 mm | - | 10 W/m² | - |
| 1777594939 | 16.11° C | 78% | 1014 hPa | 0 mm | - | 18 W/m² | - |
| 1777594635 | 16.11° C | 77% | 1014 hPa | 0 mm | - | 20 W/m² | - |
| 1777594333 | 16.67° C | 77% | 1014.1 hPa | 0 mm | - | 36 W/m² | - |
| 1777594028 | 16.67° C | 76% | 1014.2 hPa | 0 mm | - | 42 W/m² | - |
* Rain latest hour (hover to see other rain measurements)
** Current wind speed in m/s (hover to see current wind gust speed)